Location: Zeddiani
(39.9908°N, 8.5953°E)
Time: 16:34:01
(UTC+00:00)

Daily predictions for brighter satellites

Satellite Brightness Start Highest point End
(mag) Time Altitude Azimuth Time Altitude Azimuth Time Altitude Azimuth
Iridium 4 Rocket 4.3 19:22:17 10° N 19:28:09 67° W 19:33:48 10° S
JB-3 4.3 19:29:20 10° N 19:33:15 88° W 19:37:04 10° SSW
Resurs 01 Rocket 2.1 19:29:16 10° SE 19:33:28 44° ENE 19:37:43 10° N
SL-12 R/B (Aux Motor) 3.8 19:34:02 10° NW 19:36:00 47° NNE 19:37:46 10° ESE
Cosmos 1455 4.3 19:37:33 10° NE 19:39:34 14° ENE 19:41:33 10° ESE
Atlas Centaur 2 3.3 19:37:05 10° WSW 19:41:10 22° SSW 19:44:39 10° SSE
ARGOS Delta rocket 4.1 19:38:56 10° N 19:43:34 68° WNW 19:47:59 10° SSW
Lacrosse 5 3.4 19:39:46 10° NNW 19:44:06 27° NNE 19:48:26 10° E
Terra 4.0 19:44:11 10° E 19:45:51 12° ENE 19:47:32 10° NE
OBJECT-B 3.7 19:46:28 10° WSW 19:47:38 12° W 19:48:48 10° WNW
Okean-O 4.2 19:44:13 10° SSW 19:48:13 34° W 19:52:15 10° NNW
Meteor 2-5 Rocket 3.9 19:42:57 10° S 19:48:16 52° E 19:53:38 10° NNE
ATLAS 2AS CENTAUR R/B 3.6 19:41:44 10° NNW 19:48:16 37° NE 19:54:25 10° ESE
Meteor 2-10 Rocket 3.4 19:44:21 10° N 19:49:23 81° E 19:54:24 10° SSE
Cosmos 1025 Rocket 3.3 19:46:38 10° SSE 19:50:43 47° E 19:54:50 10° NNE
NOSS 3-4 (A) 4.2 19:47:16 10° NW 19:54:24 69° WSW 20:02:26 10° SSE
NOSS 3-4 (C) 4.2 19:47:22 10° NW 19:54:30 69° WSW 20:02:30 10° SSE
Cosmos 1371 Rocket 4.0 19:52:42 10° SSW 19:57:54 81° ESE 20:03:12 10° NNE
Cosmos 2369 Rocket 4.1 19:54:03 10° NW 19:58:38 26° WSW 20:03:13 10° SSW
Landsat 7 4.4 19:54:30 10° S 19:59:08 58° W 20:03:48 10° NNW
Cosmos 2315 Rocket 4.1 19:53:41 10° S 19:59:56 65° E 20:06:10 10° NNE
Okean 1 Rocket 4.2 19:56:09 10° NNW 20:00:24 44° W 20:04:36 10° SSW
SL-24 R/B 4.5 19:56:44 12° SE 20:00:27 49° ENE 20:04:53 10° N
Cosmos 1455 Rocket 3.1 19:56:11 10° N 20:00:28 59° E 20:04:22 12° SSE
CZ-4B R/B 0.9 20:01:10 10° NNE 20:04:03 86° ESE 20:06:55 10° SSW
Cosmos 1953 4.2 20:03:14 10° NNW 20:06:40 29° W 20:10:06 10° SSW
Cosmos 1709 Rocket 4.0 20:00:32 10° N 20:06:44 72° E 20:12:59 10° SSE
MetOp-B 4.2 20:06:26 13° SSE 20:11:13 66° ENE 20:16:32 10° N
Cosmos 1607 4.2 20:05:51 10° SW 20:12:05 76° WNW 20:18:18 10° NNE
IRAS Rocket 4.2 20:08:13 10° NNE 20:13:48 73° ESE 20:19:20 10° S
USA 245 4.1 20:10:48 16° SE 20:14:14 45° ENE 20:17:59 10° N
SOZ 4.1 20:15:27 10° NW 20:17:37 81° NE 20:18:45 27° ESE
Cosmos 1624 Rocket 4.2 20:12:38 10° SSW 20:17:51 73° WNW 20:23:05 10° NNE
GEOS 3 Rocket 4.4 20:14:19 11° S 20:18:58 44° WSW 20:23:51 10° NW
Cosmos 1833 Rocket 3.8 20:18:36 18° SE 20:21:06 24° ESE 20:25:31 10° NE
Meteor 1-24 Rocket 3.6 20:16:31 10° S 20:21:49 90° WNW 20:27:14 10° N
Cosmos 1190 Rocket 4.1 20:17:24 10° NNW 20:22:44 83° WSW 20:26:56 16° SSE
Delta 2 Rocket 4.5 20:21:05 10° SSW 20:22:43 17° S 20:22:43 17° S
Cosmos 407 Rocket 4.2 20:19:38 10° NNW 20:24:38 51° WSW 20:29:22 11° S
Cosmos 1536 Rocket 4.2 20:22:40 21° SE 20:24:55 36° E 20:28:53 10° NNE
ERS-1 Rocket 3.7 20:23:28 19° SE 20:26:28 37° ENE 20:31:05 10° N
H-2A R/B 3.9 20:26:51 10° N 20:30:49 33° WNW 20:34:49 10° SW
Cosmos 1975 Rocket 4.1 20:26:50 10° SSW 20:31:08 47° W 20:35:26 10° N
CARTOSAT-1 3.5 20:28:46 19° SSE 20:31:51 89° W 20:36:10 10° NNW
SPOT 3 Rocket 3.5 20:28:37 19° SSE 20:32:25 78° ENE 20:37:38 10° N
Cosmos 2082 Rocket 3.8 20:46:10 16° E 20:46:14 16° E 20:49:29 10° ENE
ATLAS 5 CENTAUR R/B 3.0 20:36:06 10° NW 20:46:17 62° WSW 20:48:19 27° S
Cosmos 1271 Rocket 2.7 20:44:26 10° N 20:48:26 85° W 20:50:14 31° S
Cosmos 676 Rocket 4.1 20:45:09 10° NNW 20:50:28 79° WSW 20:53:31 26° S
Cosmos 1544 Rocket 3.7 20:48:05 10° NNW 20:52:24 72° W 20:54:49 26° S
Lacrosse 5 rocket 1.4 20:49:20 10° NW 20:53:12 62° SW 20:54:36 37° SSE
Tiangong 0.9 20:50:09 10° WNW 20:53:19 81° SSW 20:53:52 58° ESE
Helios 1A Rocket 2.8 20:53:26 36° SSE 20:55:02 76° ENE 20:59:07 10° N
SPOT 5 2.5 20:55:22 32° SSE 20:57:24 86° ENE 21:01:46 10° NNW
X-37B 2.3 20:56:35 10° WNW 20:59:05 28° N 21:01:13 13° NE
Ariane Rocket 4.3 20:55:46 12° SSW 21:00:04 35° W 21:04:44 10° NNW
NOSS 2-1 (C) 4.2 20:57:01 10° NNW 21:01:55 86° ENE 21:05:16 30° SE
USA 267 3.2 20:56:41 10° NE 21:03:12 68° SE 21:09:42 10° SW
RESURS DK-1 3.2 21:05:52 10° N 21:09:44 37° ENE 21:10:41 32° E
Resurs 01 Rocket 4.1 21:07:24 10° SW 21:10:09 16° W 21:12:57 10° NW
NOSS 2-1 (D) 4.3 21:07:19 10° NW 21:12:16 81° WSW 21:15:21 33° SSE
Cosmos 1455 3.4 21:11:38 10° NNW 21:15:09 36° W 21:16:48 24° SW
Cosmos 2184 Rocket 3.9 21:09:28 10° N 21:15:40 87° E 21:18:46 32° S
Cosmos 1850 Rocket 4.0 21:12:31 10° NNW 21:17:43 69° ENE 21:19:25 42° SE
Terra 1.8 21:21:16 41° S 21:22:55 78° WSW 21:27:42 10° NNW
COSMOS 2406 3.4 21:25:53 41° SSE 21:27:26 52° ESE 21:33:01 10° NNE
Lacrosse 5 2.0 21:22:23 10° NW 21:27:26 64° SW 21:28:44 47° S
Cosmos 1331 Rocket 3.9 21:25:33 33° SSW 21:28:02 85° ESE 21:33:22 10° NNE
Spot 2 Rocket 4.3 21:28:27 27° SSW 21:30:49 45° W 21:35:43 10° NNW
Cosmos 1892 Rocket 3.9 21:33:27 46° E 21:33:33 46° E 21:37:46 10° NNE
USA 234 4.5 21:29:41 10° E 21:35:33 36° NNE 21:41:26 10° NW
Cosmos 2058 Rocket 4.2 21:32:40 10° NNE 21:36:32 29° ENE 21:36:44 29° E
Cosmos 1892 4.2 21:38:17 24° ENE 21:38:17 24° ENE 21:40:33 10° NNE
Cosmos 1980 Rocket 3.4 21:33:57 10° N 21:39:00 32° ENE 21:41:03 25° E
ATLAS 2AS CENTAUR R/B 3.2 21:32:43 10° NW 21:39:19 47° WSW 21:41:56 32° SSW
Cosmos 1697 Rocket 2.8 21:35:41 10° NNW 21:41:17 64° ENE 21:42:50 46° SE
ARIANE 5 R/B 2.8 21:41:11 51° SSW 21:42:05 64° WSW 21:46:31 10° NNW
Cosmos 1408 3.9 21:44:51 29° NE 21:44:51 29° NE 21:46:55 10° NNE
Cosmos 1656 4.0 21:41:01 10° NNW 21:46:19 53° WSW 21:47:55 40° SSW
Meteor 1-11 4.3 21:49:10 51° SE 21:50:15 60° E 21:55:45 10° NNE
Cosmos 1302 Rocket 3.9 21:54:27 61° SSE 21:55:11 72° ESE 22:00:22 10° NNE
GP-B 3.2 21:50:56 10° N 21:55:18 60° E 21:55:18 60° E
SAR-Lupe-4 3.9 21:52:07 10° N 21:55:20 65° NNW 21:55:20 65° NNW
Cosmos 1328 4.1 21:55:44 57° WSW 21:56:02 59° W 22:00:01 10° N
SL-8 R/B 4.3 21:55:40 10° NW 22:00:24 52° NNE 22:02:03 35° ENE
Cosmos 2228 4.1 21:59:36 10° NNW 22:03:28 35° W 22:04:03 33° WSW
Cosmos 2181 Rocket 4.1 22:02:47 48° SE 22:03:56 56° E 22:09:58 10° NNE
Cosmos 1833 Rocket 3.6 22:00:12 14° SW 22:04:42 45° WNW 22:10:05 10° NNE
Cosmos 192 4.3 22:05:44 59° SW 22:06:37 77° WNW 22:11:31 10° NNE
ATLAS 5 CENTAUR R/B 3.6 22:10:08 14° ENE 22:10:08 14° ENE 22:10:48 10° NE
Cosmos 2084 Rocket 4.3 22:05:38 10° NNW 22:09:19 37° NE 22:09:23 37° NE
Okean 1-7 Rocket 4.3 22:11:18 43° ENE 22:11:18 43° ENE 22:15:01 10° NNE
Cosmos 1606 Rocket 4.2 22:09:16 10° NNW 22:13:22 44° W 22:13:37 43° WSW
Cosmos 962 Rocket 4.5 22:13:13 10° N 22:19:26 76° W 22:21:02 52° SSW
Cosmos 2360 4.4 22:17:35 10° NNW 22:23:13 59° WSW 22:24:01 54° SW
Cosmos 968 Rocket 3.3 22:21:35 10° NNW 22:26:49 85° ENE 22:27:10 78° SE
Cosmos 2082 Rocket 2.4 22:27:58 46° SW 22:29:37 69° WNW 22:35:20 10° NNE
ADEOS Rocket 3.8 22:30:44 41° ESE 22:33:03 57° ENE 22:40:27 10° N
ASTEX 1 4.2 22:29:25 10° N 22:34:10 43° WNW 22:35:10 38° WSW
X-37B 3.7 22:32:18 10° WNW 22:32:25 11° WNW 22:32:25 11° WNW
Cosmos 1932 4.3 22:35:39 59° SSW 22:36:55 85° ESE 22:43:15 10° NNE
Cosmos 1825 3.2 22:38:06 43° N 22:38:06 43° N 22:40:43 10° N
ERS-2 4.2 22:39:58 10° NE 22:41:23 20° NE 22:41:23 20° NE
USA 267 4.5 22:39:57 10° NE 22:45:58 40° NNW 22:51:57 10° W
Cosmos 1633 4.4 22:51:55 27° NNE 22:51:55 27° NNE 22:53:42 10° NNE
Cosmos 1812 Rocket 4.2 22:47:33 10° N 22:51:22 48° NE 22:51:22 48° NE
ALOS 2 2.9 22:53:39 66° NNE 22:53:39 66° NNE 22:57:30 10° N
SL-8 Rocket 4.3 22:51:23 10° NNW 22:57:24 53° W 22:58:31 47° SW
H-2A R/B 4.0 22:53:34 10° N 22:57:07 59° NNW 22:57:07 59° NNW
Cosmos 1602 Rocket 4.0 23:02:19 60° N 23:02:19 60° N 23:05:53 10° N
Cosmos 1606 4.4 22:58:49 10° NNE 23:01:19 28° NE 23:01:19 28° NE
Cosmos 1486 Rocket 3.9 22:58:29 10° NNW 23:03:44 80° ENE 23:03:46 80° ENE
Cosmos 1992 Rocket 4.4 23:09:46 52° W 23:10:21 54° WNW 23:15:31 10° N
Cosmos 2218 Rocket 4.5 23:05:30 10° NNW 23:11:38 50° W 23:12:46 45° WSW
Meteor 1-27 4.5 23:07:21 10° NNW 23:12:44 52° W 23:13:00 52° WSW
Cosmos 2366 rocket 4.5 23:07:52 10° NNW 23:13:53 48° W 23:14:58 44° WSW
Cosmos 2058 4.0 23:18:20 40° NE 23:18:20 40° NE 23:21:20 10° NNE
SL-16 R/B 2.7 23:12:08 10° NNW 23:17:41 51° ENE 23:18:42 46° E
USA 234 3.1 23:16:55 60° SSE 23:18:10 78° SW 23:24:46 10° NW
Cosmos-2242 3.6 23:16:51 10° N 23:20:11 54° N 23:20:11 54° N
Cosmos 1980 Rocket 3.1 23:17:50 10° NW 23:22:48 36° W 23:22:48 36° W
Cosmos 1354 Rocket 4.2 23:23:22 10° NNW 23:28:39 64° ENE 23:28:55 62° E
Resurs 1-4 Rocket 4.4 23:34:19 10° ENE 23:36:13 12° E 23:36:57 12° E
Cosmos 1825 Rocket 4.0 23:39:29 57° N 23:39:29 57° N 23:42:59 10° N
Cosmos 1340 Rocket 4.0 23:41:37 39° NNE 23:41:37 39° NNE 23:44:17 10° NNE
Cosmos 1503 Rocket 3.9 23:35:35 10° NNW 23:40:43 80° WNW 23:40:43 80° WNW
Cosmos 1867 4.3 23:36:28 10° NW 23:40:44 39° W 23:40:44 39° W
BREEZE-M DEB (TANK) 4.1 23:45:28 35° NNE 23:45:28 35° NNE 23:48:55 10° NE
Cosmos 1934 Rocket 3.9 23:38:25 10° N 23:44:30 71° E 23:45:25 61° SE
Meteor 2-2 Rocket 4.3 23:38:48 10° N 23:44:49 74° E 23:45:37 65° SE
ATLAS 5 CENTAUR R/B 3.2 23:51:32 22° NW 23:51:57 23° NW 23:55:14 10° N
SJ 16-02 1.8 23:49:29 10° NNW 23:53:09 60° NNW 23:53:09 60° NNW
Cosmos 1777 Rocket 4.0 23:49:23 10° NNW 23:54:41 70° ENE 23:55:00 68° E
